Location: Asheville, NC
(35.6000°N, 82.5500°W)
Time: 16:17:05
(UTC-05:00)

KKS-1 - Pass Details

Date: 18 February 2018
Orbit: 638 x 650 km, 98.3° (Epoch: 20 February)

Event Time Altitude Azimuth Distance (km) Brightness Sun altitude
Rises 18:40:06 0° 2° (N) 2,970 ? -5.8°
Reaches altitude 10° 18:42:28 10° 353° (N) 2,056 ? -6.3°
Maximum altitude 18:46:31 34° 289° (WNW) 1,062 ? -7.1°
Drops below altitude 10° 18:50:32 10° 224° (SW) 2,043 ? -7.9°
Sets 18:52:53 0° 215° (SW) 2,948 ? -8.4°
